STARLINK-5626, 55435

Orbit data source: Space-Track

STARLINK-5626, 55435 is a payload satellite owned by SpaceX/Seattle (US) in LEO that was launched on Tue, 31 Jan 2023 UTC via an FALCON 9 launch vehicle from the Air Force Western Test Range (AFWTR). Payload-class satellites include a variety of spacecraft equipped with specific instruments for various scientific and technological missions. These include communications satellites like Starlink; space stations such as the ISS; scientific satellites like the Hubble; Earth observation satellites from companies like Planet Labs, Umbra, and HawkEye 360; GPS; miniature CubeSats for education and research; and military/defense satellites.

Loading next visibility...
Identifier
55435, 2023-014AW
Orbit
LEO
Country
Flag of USUS
Related business
Manufacturer
SpaceX/Seattle
Mission
Operational Commercial Communications
Bus & Motor
STARLINK, Unknown motor
Mass
305 kg wet, ~290 kg dry
Launch date (UTC)
2023-01-31 (3 years ago)
Launch vehicle
FALCON 9
Launch site
Air Force Western Test Range (AFWTR)
Object type
Payload
Rocket body
Debris
Shape & HBR
Box + 1 Pan, 10.1 m
Radar Cross Section
13.562 m², Large (>1 m²)

Expand to show TLE details & history
Last TLE update: 2 days ago

TLE from 2 days ago
0 STARLINK-5626
1 55435U 23014AW  26171.39485001 -.00001034  00000-0 -78858-4 0  9999
2 55435  70.0031 205.4722 0002847 238.6771 121.4109 14.98326326186458
Epoch: 2026-06-20T09:28Z
TLE epoch observation values (Epoch: 2026-06-20T09:28:35.040Z)
Latitude
-0.00011°
Longitude
154.71607°
Altitude
575.523 km
Speed
7.573 km/s
True Right ascension
13h 41m 53s
True Declination
0° 00' 00"
Sunlit
Object was in full shadow at epoch
Visualization orbit readout
Latitude
Unknown
Longitude
Unknown
Altitude
Unknown
Speed
Unknown
Apparent Right ascension
Unknown
Apparent Declination
Unknown
Sunlit
N/A
Visualization observer readout
Local Sidereal Time
21:26:00
Azimuth
Unknown
Elevation
Unknown
Doppler factor
Unknown
Orbital elements
Apogee altitude
571.993 km
Perigee altitude
568.037 km
Semi-major axis
6,948.152 km
Eccentricity
0.00028
Inclination
70.0031°
RAAN
205.4722°
Arg. of periapsis
238.6771°
True anomaly
121.43874°
Mean anomaly
121.4109°
Eccentric anomaly
121.42482°
Mean motion
3.74748 °/min
Orbital period
96.06 mins
BSTAR
-0.000078858
Loading maneuver chart data...
Computing Atmospheric mass density...

Documentation

Showing up to 5 results
|